Location: *
(58.4167°N, 22.5000°E)
Time: 21:33:34
(UTC+00:00)

Cosmos 2297 Rocket - Pass Details

Date: 22 September 2019
Orbit: 841 x 842 km, 71.0° (Epoch: 15 October)

Event Time Altitude Azimuth Distance (km) Brightness Sun altitude
Rises 21:45:37 0° 279° (W) 3,405 5.6 -31.0°
Reaches altitude 10° 21:48:31 10° 292° (WNW) 2,471 5.0 -31.0°
Maximum altitude 21:53:08 25° 347° (NNW) 1,652 4.3 -31.1°
Drops below altitude 10° 21:57:46 10° 42° (NE) 2,473 5.1 -31.2°
Sets 22:00:41 0° 56° (NE) 3,409 5.7 -31.3°
